Abis Bremen — PCJO — position and weather

sailwx.info

Track history (hours):
 
Tides and Currents Weather Stations Pressure Air Temp Water Temp Dewpoint Dewpoint Depression Visibility Wind Speed Wind Dir Waves Ship Positions

Abis Bremen

Last reported at 2017-Aug-16 12:03 UTC. Time now 2017-Aug-18 10:51 UTC.
Position N 49°39' W 006°12'.

Length 90 m; draft 5.2 m.

Type: Ship. MMSI: 246778880.

Date/timePositionNaut miles runAvg speedWind from/ knotsBaromVisibWave heightAir tempDewpointWater temp
2017-Aug-16 12:03N 49°39' W 006°12'0 9.1
2017-Aug-16 12:00N 49°39' W 006°12'14 9.3
2017-Aug-16 10:31N 49°52' W 006°03'3 9.9
2017-Aug-16 10:11N 49°55' W 006°02'310.0
2017-Aug-16 09:56N 49°57' W 006°02'6 9.9
2017-Aug-16 09:18N 50°04' W 006°01'4 9.8
2017-Aug-16 08:55N 50°08' W 006°01'4 9.9
2017-Aug-16 08:28N 50°12' W 006°00'510.0
2017-Aug-16 07:58N 50°17' W 005°60'4 9.7
2017-Aug-16 07:30N 50°21' W 005°58'510.4
2017-Aug-16 07:00N 50°25' W 005°53'510.9
2017-Aug-16 06:30N 50°29' W 005°47'611.2
2017-Aug-16 06:00N 50°33' W 005°41'611.1
2017-Aug-16 05:30N 50°38' W 005°35'611.3
2017-Aug-16 05:00N 50°42' W 005°30'611.2
2017-Aug-16 04:30N 50°46' W 005°24'611.3
2017-Aug-16 04:00N 50°50' W 005°18'611.4
2017-Aug-16 03:30N 50°54' W 005°12'611.4
2017-Aug-16 03:00N 50°59' W 005°06'611.5
2017-Aug-16 02:30N 51°03' W 004°60'611.5
2017-Aug-16 02:00N 51°07' W 004°54'611.7
2017-Aug-16 01:30N 51°12' W 004°48'711.6
2017-Aug-16 00:55N 51°16' W 004°39'511.8
2017-Aug-16 00:30N 51°19' W 004°33'611.4
2017-Aug-15 23:59N 51°22' W 004°25'  
2017-Aug-13 17:36N 51°27' W 004°12'4 8.6
2017-Aug-13 17:05N 51°25' W 004°18'3 8.6
2017-Aug-13 16:43N 51°23' W 004°22'2 8.3
2017-Aug-13 16:30N 51°22' W 004°24'4 8.1
2017-Aug-13 16:00N 51°20' W 004°30'4 7.8
2017-Aug-13 15:30N 51°18' W 004°35'4 7.2
2017-Aug-13 15:00N 51°16' W 004°40'3 7.0
2017-Aug-13 14:30N 51°14' W 004°45'3 6.5
2017-Aug-13 14:00N 51°11' W 004°47'3 6.7
2017-Aug-13 13:30N 51°09' W 004°51'3 6.9
2017-Aug-13 13:00N 51°06' W 004°54'3 6.9
2017-Aug-13 12:30N 51°03' W 004°58'4 7.0
2017-Aug-13 12:00N 51°01' W 005°02'4 7.4
2017-Aug-13 11:30N 50°58' W 005°05'4 7.7
2017-Aug-13 11:00N 50°55' W 005°09'4 7.9
2017-Aug-13 10:30N 50°52' W 005°13'4 8.1
2017-Aug-13 10:00N 50°48' W 005°17'4 8.4
2017-Aug-13 09:30N 50°45' W 005°20'4 8.5
2017-Aug-13 09:00N 50°42' W 005°25'4 8.7
2017-Aug-13 08:30N 50°38' W 005°29'4 8.9
2017-Aug-13 08:00N 50°35' W 005°33'5 9.6
2017-Aug-13 07:30N 50°31' W 005°38'5 9.7
2017-Aug-13 06:59N 50°27' W 005°43'67 9.8
2017-Aug-13 00:07N 49°23' W 006°13'3 8.8
2017-Aug-12 23:46N 49°20' W 006°14'2 8.7
2017-Aug-12 23:30N 49°18' W 006°15'5 8.8
2017-Aug-12 23:00N 49°13' W 006°16'4 8.8
2017-Aug-12 22:29N 49°09' W 006°18'479 9.4
2017-Aug-10 19:36N 41°25' W 009°11'1 8.5
2017-Aug-10 19:30N 41°25' W 009°11'4 8.8
2017-Aug-10 19:00N 41°20' W 009°09'5 9.0
2017-Aug-10 18:29N 41°16' W 009°07'4 9.2
2017-Aug-10 18:00N 41°12' W 009°05'5 9.3
2017-Aug-10 17:30N 41°07' W 009°03'5 9.2
2017-Aug-10 17:00N 41°03' W 009°01'4 9.1
2017-Aug-10 16:30N 40°59' W 008°59'5 9.0
2017-Aug-10 15:59N 40°55' W 008°57'4 9.0
2017-Aug-10 15:30N 40°51' W 008°54'  
2017-Aug-06 19:03N 49°17' W 004°40'110.3
2017-Aug-06 18:58N 49°18' W 004°39'510.1
2017-Aug-06 18:31N 49°20' W 004°33'5 9.8
2017-Aug-06 18:01N 49°22' W 004°27'5 9.3
2017-Aug-06 17:31N 49°25' W 004°21'7 9.0
2017-Aug-06 16:46N 49°28' W 004°12'2 8.9
2017-Aug-06 16:30N 49°29' W 004°08'5 9.0
2017-Aug-06 15:58N 49°32' W 004°02'4 9.3
2017-Aug-06 15:30N 49°34' W 003°56'5 9.6
2017-Aug-06 15:01N 49°36' W 003°50'5 9.9
2017-Aug-06 14:30N 49°39' W 003°44'1010.6
2017-Aug-06 13:31N 49°44' W 003°30'611.5
2017-Aug-06 13:00N 49°47' W 003°22'611.8
2017-Aug-06 12:31N 49°50' W 003°14'  
Track history (hours):
 
Tides and Currents Weather Stations Pressure Air Temp Water Temp Dewpoint Dewpoint Depression Visibility Wind Speed Wind Dir Waves Ship Positions

Abis Bremen

Last reported at 2017-Aug-16 12:03 UTC. Time now 2017-Aug-18 10:51 UTC.
Position N 49°39' W 006°12'.

Length 90 m; draft 5.2 m.

Type: Ship. MMSI: 246778880.

Date/timePositionNaut miles runAvg speedWind from/ knotsBaromVisibWave heightAir tempDewpointWater temp
2017-Aug-16 12:03N 49°39' W 006°12'0 9.1
2017-Aug-16 12:00N 49°39' W 006°12'14 9.3
2017-Aug-16 10:31N 49°52' W 006°03'3 9.9
2017-Aug-16 10:11N 49°55' W 006°02'310.0
2017-Aug-16 09:56N 49°57' W 006°02'6 9.9
2017-Aug-16 09:18N 50°04' W 006°01'4 9.8
2017-Aug-16 08:55N 50°08' W 006°01'4 9.9
2017-Aug-16 08:28N 50°12' W 006°00'510.0
2017-Aug-16 07:58N 50°17' W 005°60'4 9.7
2017-Aug-16 07:30N 50°21' W 005°58'510.4
2017-Aug-16 07:00N 50°25' W 005°53'510.9
2017-Aug-16 06:30N 50°29' W 005°47'611.2
2017-Aug-16 06:00N 50°33' W 005°41'611.1
2017-Aug-16 05:30N 50°38' W 005°35'611.3
2017-Aug-16 05:00N 50°42' W 005°30'611.2
2017-Aug-16 04:30N 50°46' W 005°24'611.3
2017-Aug-16 04:00N 50°50' W 005°18'611.4
2017-Aug-16 03:30N 50°54' W 005°12'611.4
2017-Aug-16 03:00N 50°59' W 005°06'611.5
2017-Aug-16 02:30N 51°03' W 004°60'611.5
2017-Aug-16 02:00N 51°07' W 004°54'611.7
2017-Aug-16 01:30N 51°12' W 004°48'711.6
2017-Aug-16 00:55N 51°16' W 004°39'511.8
2017-Aug-16 00:30N 51°19' W 004°33'611.4
2017-Aug-15 23:59N 51°22' W 004°25'  
2017-Aug-13 17:36N 51°27' W 004°12'4 8.6
2017-Aug-13 17:05N 51°25' W 004°18'3 8.6
2017-Aug-13 16:43N 51°23' W 004°22'2 8.3
2017-Aug-13 16:30N 51°22' W 004°24'4 8.1
2017-Aug-13 16:00N 51°20' W 004°30'4 7.8
2017-Aug-13 15:30N 51°18' W 004°35'4 7.2
2017-Aug-13 15:00N 51°16' W 004°40'3 7.0
2017-Aug-13 14:30N 51°14' W 004°45'3 6.5
2017-Aug-13 14:00N 51°11' W 004°47'3 6.7
2017-Aug-13 13:30N 51°09' W 004°51'3 6.9
2017-Aug-13 13:00N 51°06' W 004°54'3 6.9
2017-Aug-13 12:30N 51°03' W 004°58'4 7.0
2017-Aug-13 12:00N 51°01' W 005°02'4 7.4
2017-Aug-13 11:30N 50°58' W 005°05'4 7.7
2017-Aug-13 11:00N 50°55' W 005°09'4 7.9
2017-Aug-13 10:30N 50°52' W 005°13'4 8.1
2017-Aug-13 10:00N 50°48' W 005°17'4 8.4
2017-Aug-13 09:30N 50°45' W 005°20'4 8.5
2017-Aug-13 09:00N 50°42' W 005°25'4 8.7
2017-Aug-13 08:30N 50°38' W 005°29'4 8.9
2017-Aug-13 08:00N 50°35' W 005°33'5 9.6
2017-Aug-13 07:30N 50°31' W 005°38'5 9.7
2017-Aug-13 06:59N 50°27' W 005°43'67 9.8
2017-Aug-13 00:07N 49°23' W 006°13'3 8.8
2017-Aug-12 23:46N 49°20' W 006°14'2 8.7
2017-Aug-12 23:30N 49°18' W 006°15'5 8.8
2017-Aug-12 23:00N 49°13' W 006°16'4 8.8
2017-Aug-12 22:29N 49°09' W 006°18'479 9.4
2017-Aug-10 19:36N 41°25' W 009°11'1 8.5
2017-Aug-10 19:30N 41°25' W 009°11'4 8.8
2017-Aug-10 19:00N 41°20' W 009°09'5 9.0
2017-Aug-10 18:29N 41°16' W 009°07'4 9.2
2017-Aug-10 18:00N 41°12' W 009°05'5 9.3
2017-Aug-10 17:30N 41°07' W 009°03'5 9.2
2017-Aug-10 17:00N 41°03' W 009°01'4 9.1
2017-Aug-10 16:30N 40°59' W 008°59'5 9.0
2017-Aug-10 15:59N 40°55' W 008°57'4 9.0
2017-Aug-10 15:30N 40°51' W 008°54'  
2017-Aug-06 19:03N 49°17' W 004°40'110.3
2017-Aug-06 18:58N 49°18' W 004°39'510.1
2017-Aug-06 18:31N 49°20' W 004°33'5 9.8
2017-Aug-06 18:01N 49°22' W 004°27'5 9.3
2017-Aug-06 17:31N 49°25' W 004°21'7 9.0
2017-Aug-06 16:46N 49°28' W 004°12'2 8.9
2017-Aug-06 16:30N 49°29' W 004°08'5 9.0
2017-Aug-06 15:58N 49°32' W 004°02'4 9.3
2017-Aug-06 15:30N 49°34' W 003°56'5 9.6
2017-Aug-06 15:01N 49°36' W 003°50'5 9.9
2017-Aug-06 14:30N 49°39' W 003°44'1010.6
2017-Aug-06 13:31N 49°44' W 003°30'611.5
2017-Aug-06 13:00N 49°47' W 003°22'611.8
2017-Aug-06 12:31N 49°50' W 003°14'  

Dump ship's entire track history